This is the latest recevied weather packets stored in our database for station/object 7L2IWN-13. If no packets are shown the sender has not sent any weather packets the latest 10 day(s).
| Time | Temp. | Humidity | Pressure | Rain* | Wind** | Luminosity | Snow |
|---|---|---|---|---|---|---|---|
| 1777453101 | 16.11° C | 87% | 1012.3 hPa | 0 mm | - | - | - |
| 1777452380 | 16.11° C | 86% | 1012.5 hPa | 0 mm | - | - | - |
| 1777451660 | 16.11° C | 87% | 1012.2 hPa | 0 mm | - | - | - |
| 1777450941 | 16.67° C | 86% | 1012.3 hPa | 0 mm | - | - | - |
| 1777450220 | 16.67° C | 86% | 1011.8 hPa | 0 mm | - | - | - |
| 1777449499 | 16.11° C | 86% | 1012.2 hPa | 0 mm | - | - | - |
| 1777448060 | 16.67° C | 85% | 1011.9 hPa | 0 mm | - | - | - |
| 1777447340 | 16.67° C | 85% | 1011.4 hPa | 0 mm | - | - | - |
| 1777446619 | 16.67° C | 85% | 1011.3 hPa | 0 mm | - | - | - |
| 1777445901 | 16.67° C | 85% | 1011.3 hPa | 0 mm | - | - | - |
| 1777445180 | 17.22° C | 86% | 1010.9 hPa | 0 mm | - | - | - |
| 1777444461 | 17.22° C | 84% | 1010.8 hPa | 0 mm | - | - | - |
| 1777443741 | 17.78° C | 83% | 1010.5 hPa | 0 mm | - | - | - |
| 1777443021 | 17.78° C | 82% | 1010.3 hPa | 0 mm | - | - | - |
| 1777442300 | 17.78° C | 82% | 1010.2 hPa | 0 mm | - | - | - |
| 1777441580 | 17.78° C | 83% | 1010.3 hPa | 0 mm | - | - | - |
| 1777440860 | 18.33° C | 82% | 1010.2 hPa | 0 mm | - | - | - |
| 1777440141 | 18.33° C | 83% | 1010.2 hPa | 0 mm | - | - | - |
| 1777439419 | 18.89° C | 81% | 1010 hPa | 0 mm | - | - | - |
| 1777438701 | 18.89° C | 81% | 1010 hPa | 0 mm | - | - | - |
| 1777437981 | 19.44° C | 79% | 1009.9 hPa | 0 mm | - | - | - |
| 1777436539 | 18.33° C | 79% | 1010 hPa | 0 mm | - | - | - |
| 1777435100 | 18.33° C | 81% | 1010 hPa | 0 mm | - | - | - |
| 1777434381 | 18.89° C | 77% | 1010.4 hPa | 0 mm | - | - | - |
| 1777433659 | 18.89° C | 76% | 1010.2 hPa | 0 mm | - | - | - |
* Rain latest hour (hover to see other rain measurements)
** Current wind speed in m/s (hover to see current wind gust speed)